Volver al catálogo

THORAD AGENA D DEB

ActivoPO
NORAD 4932·DEBRIS·🇺🇸 United States

Lanzado Apr 8, 1970 desde Vandenberg Space Force Base

Loading…

Próximos Pases

TLE

Source: Space-Track
1 04932U 70025FY  26229.85479721  .00000981  00000-0  71039-3 0  9997
2 04932  99.8040 255.8613 0029462 162.7097  13.4026 13.99021185811796

Sigue THORAD AGENA D DEB en tiempo real con AllMySat

Download on the App Store